TimeEST,TemperatureF,Dew PointF,Humidity,Sea Level PressureIn,VisibilityMPH,Wind Direction,Wind SpeedMPH,Gust SpeedMPH,PrecipitationIn,Events,Conditions,WindDirDegrees,DateUTC
12:54 AM,33.1,24.1,70,29.81,10.0,SW,3.5,-,N/A,,Clear,220,2013-03-01 05:54:00
1:54 AM,32.0,24.1,73,29.81,10.0,Calm,Calm,-,N/A,,Clear,0,2013-03-01 06:54:00
2:54 AM,28.9,24.1,82,29.81,10.0,Calm,Calm,-,N/A,,Clear,0,2013-03-01 07:54:00
3:54 AM,30.2,26.6,86,29.79,10.0,West,3.5,-,N/A,,Overcast,260,2013-03-01 08:54:00
4:54 AM,32.0,27.0,82,29.83,10.0,SSW,3.5,-,N/A,,Overcast,210,2013-03-01 09:54:00
5:54 AM,34.0,27.0,75,29.83,10.0,South,3.5,-,N/A,,Overcast,180,2013-03-01 10:54:00
6:54 AM,36.0,27.0,70,29.85,10.0,Calm,Calm,-,N/A,,Overcast,0,2013-03-01 11:54:00
7:54 AM,37.0,27.0,67,29.86,10.0,WSW,3.5,-,N/A,,Overcast,240,2013-03-01 12:54:00
8:54 AM,39.0,27.0,62,29.86,10.0,WSW,4.6,-,N/A,,Overcast,250,2013-03-01 13:54:00
9:54 AM,39.9,27.0,60,29.87,10.0,West,3.5,-,N/A,,Overcast,270,2013-03-01 14:54:00
10:54 AM,41.0,26.1,55,29.88,10.0,WNW,4.6,-,N/A,,Overcast,300,2013-03-01 15:54:00
11:54 AM,42.1,25.0,51,29.87,10.0,Calm,Calm,-,N/A,,Overcast,0,2013-03-01 16:54:00
12:54 PM,42.1,25.0,51,29.87,10.0,WNW,3.5,-,N/A,,Overcast,300,2013-03-01 17:54:00
1:54 PM,43.0,24.1,47,29.85,10.0,NW,6.9,-,N/A,,Overcast,310,2013-03-01 18:54:00
2:54 PM,42.1,24.1,49,29.84,10.0,WNW,5.8,-,N/A,,Overcast,300,2013-03-01 19:54:00
3:54 PM,42.1,23.0,47,29.85,10.0,NW,6.9,-,N/A,,Overcast,310,2013-03-01 20:54:00
4:54 PM,42.1,23.0,47,29.86,10.0,NW,6.9,-,N/A,,Overcast,320,2013-03-01 21:54:00
5:54 PM,41.0,23.0,49,29.87,10.0,WNW,6.9,-,N/A,,Overcast,300,2013-03-01 22:54:00
6:54 PM,39.0,23.0,53,29.90,10.0,Variable,4.6,-,N/A,,Overcast,0,2013-03-01 23:54:00
7:54 PM,39.0,21.0,49,29.91,10.0,Variable,5.8,-,N/A,,Overcast,0,2013-03-02 00:54:00
8:54 PM,37.9,21.0,51,29.91,10.0,Variable,4.6,-,N/A,,Overcast,0,2013-03-02 01:54:00
9:54 PM,37.9,21.0,51,29.92,10.0,North,4.6,-,N/A,,Overcast,360,2013-03-02 02:54:00
10:54 PM,37.9,21.0,51,29.92,10.0,Calm,Calm,-,N/A,,Overcast,0,2013-03-02 03:54:00
11:54 PM,37.9,21.9,53,29.91,10.0,Calm,Calm,-,N/A,,Overcast,0,2013-03-02 04:54:00